Location: Cussy
(47.0410°N, 4.6412°E)
Time: 17:47:19
(UTC+00:00)

Meteor 2-13 Rocket - Visible Passes

Search period start: 22 June 2021 00:00
Search period end: 02 July 2021 00:00
Orbit: 936 x 957 km, 82.5° (Epoch: 21 June)

Date Brightness Start Highest point End Pass type
(mag) Time Alt. Az. Time Alt. Az. Time Alt. Az.
22 Jun 5.0 00:57:21 25° SW 01:00:45 48° WNW 01:06:43 10° N visible
22 Jun 5.1 23:29:57 28° SE 23:32:46 45° E 23:38:35 10° NNE visible
23 Jun 5.5 01:14:00 18° WSW 01:17:44 33° WNW 01:23:15 10° N visible
23 Jun 6.6 22:04:38 10° E 22:05:51 11° ENE 22:07:03 10° ENE visible
23 Jun 4.6 23:46:37 33° SSE 23:49:26 67° E 23:55:33 10° NNE visible
24 Jun 6.1 01:30:39 12° WSW 01:34:50 23° WNW 01:39:36 10° NNW visible
24 Jun 6.3 22:19:12 12° ESE 22:22:12 17° E 22:25:57 10° NE visible
25 Jun 4.4 00:03:15 33° SSW 00:06:11 83° W 00:12:24 10° N visible
25 Jun 6.5 01:48:29 10° W 01:52:02 16° WNW 01:55:35 10° NNW visible
25 Jun 5.8 22:35:50 19° ESE 22:38:38 26° E 22:43:34 10° NNE visible
26 Jun 4.8 00:19:52 28° SW 00:23:02 56° WNW 00:29:07 10° N visible
26 Jun 6.8 02:08:39 10° WNW 02:09:21 10° NW 02:10:04 10° NW visible
26 Jun 5.2 22:52:27 26° SE 22:55:10 38° E 23:00:47 10° NNE visible
27 Jun 5.4 00:36:29 21° SW 00:39:59 38° WNW 00:45:42 10° N visible
27 Jun 4.7 23:09:02 32° SSE 23:11:48 57° E 23:17:49 10° NNE visible
28 Jun 5.9 00:53:05 14° WSW 00:57:01 26° WNW 01:02:07 10° N visible
28 Jun 6.4 21:41:36 10° ESE 21:44:41 14° ENE 21:47:45 10° NE visible
28 Jun 4.4 23:25:38 34° S 23:28:31 85° E 23:34:43 10° N visible
29 Jun 6.4 01:10:06 10° WSW 01:14:11 18° WNW 01:18:17 10° NNW visible
29 Jun 5.9 21:58:10 16° ESE 22:01:05 22° E 22:05:37 10° NE visible
29 Jun 4.6 23:42:12 30° SSW 23:45:20 66° WNW 23:51:28 10° N visible
30 Jun 6.7 01:29:08 10° W 01:31:27 12° WNW 01:33:47 10° NW visible
30 Jun 5.4 22:14:44 22° SE 22:17:35 33° E 22:22:58 10° NNE visible
30 Jun 5.2 23:58:46 23° SW 00:02:14 44° WNW 00:08:06 10° N visible
01 Jul 4.9 22:31:16 28° SSE 22:34:10 49° E 22:40:04 10° NNE visible
